[[{"header":{"parameterUnit":"m.s-1","parameterCategory":1,"la1":30.2991,"la2":30.254,"lo1":-89.0895,"lo2":-89.0444,"dy":0.0017,"dx":0.0017,"nx":28,"ny":28,"refTime":"2024-08-10T21:00:00:Z","depth":0,"parameterNumber":2,"parameterNumberName":"U-component_of_WINDS"},"data":[0,0,0,0,0,0,0,0,0,0,0,0,0,0,0,0,0,0,0,0,0,0,0,0,0,0,0,0,0,0,0,0,0,0,0,0,0,0,0,0,0,0,0,0,0,0,0,0,0,0,0,0,0,0,0,0,0,0,0.0538,0.0539,0,0.0624,0.0625,0.0626,0.0704,0.0705,0.0706,0.0707,0.0797,0.0798,0.08,0,0,0,0,0,0,0,0,0,0,0,0,0,0.0444,0.0445,0.0538,0.0539,0.054,0.0624,0.0625,0.0626,0.0704,0.0705,0.0706,0.0707,0.0796,0.0798,0.08,0,0,0,0,0,0,0,0,0,0,0,0,0,0.0503,0.0446,0.0538,0.0589,0.0595,0.0623,0.0625,0.0626,0.0704,0.0705,0.0706,0.0708,0.0796,0.0798,0.08,0.0786,0,0,0.0807,0.0808,0,0,0,0,0,0,0,0,0.0499,0.0506,0.0581,0.0586,0.0592,0.0655,0.0625,0.068,0.0703,0.0662,0.0707,0.0708,0.0748,0.0755,0.0768,0.079,0.0794,0.0807,0.0809,0.081,0.081,0,0,0,0,0,0,0,0.0495,0.0503,0.0572,0.0582,0.0589,0.0608,0.0618,0.0635,0.0696,0.0666,0.0672,0.0681,0.0752,0.0765,0.077,0.0795,0.0807,0.0809,0.0811,0.0811,0.0809,0.0808,0,0,0,0,0,0,0.0483,0.0499,0.057,0.0575,0.0548,0.0609,0.062,0.0633,0.0696,0.0707,0.0679,0.0684,0.0761,0.0768,0.0774,0.0761,0.0809,0.0812,0.0813,0.081,0.0809,0.0807,0,0,0,0,0,0,0.0481,0.0489,0.0566,0.0539,0.055,0.0609,0.0623,0.0634,0.0648,0.0707,0.0718,0.0682,0.0762,0.0771,0.0782,0.0765,0.0813,0.0815,0.0812,0.081,0.0808,0.0734,0,0,0,0,0,0,0.0478,0.0487,0.0482,0.0538,0.0551,0.0572,0.0622,0.0635,0.0651,0.0658,0.0712,0.0722,0.0764,0.0778,0.0784,0.0769,0.0816,0.0814,0.0811,0.0809,0.0739,0.073,0.0723,0,0,0,0,0,0.0474,0.0459,0.0481,0.049,0.0546,0.0571,0.0578,0.0626,0.0649,0.0645,0.0683,0.0721,0.0765,0.0778,0.0786,0.0771,0.0815,0.0812,0.0809,0.0742,0.0732,0.0723,0,0,0,0,0,0,0.0401,0.0467,0.0493,0.0495,0.0526,0.0584,0.058,0.0613,0.0639,0.0645,0.0703,0.0715,0.0719,0.0747,0.076,0.076,0.0796,0.0794,0.0742,0.0733,0.0725,0.0718,0.0818,0,0,0,0,0,0.0385,0.0399,0.0456,0.0453,0.0467,0.052,0.0533,0.0567,0.0602,0.0616,0.0655,0.0688,0.071,0.0723,0.0746,0.0743,0.0755,0.0736,0.0728,0.0721,0.0719,0.0719,0.071,0.0797,0.0797,0.0797,0,0,0.0352,0.039,0.0395,0.0439,0.0467,0.0481,0.0531,0.0544,0.0555,0.0618,0.0631,0.066,0.0701,0.0704,0.0708,0.0727,0.0698,0.0717,0.0711,0.0713,0.0714,0.0706,0.0699,0.0794,0.0795,0.0795,0,0,0.0299,0.0329,0.0329,0.0356,0.0398,0.0433,0.0433,0.0485,0.0507,0.052,0.0567,0.0581,0.0618,0.0645,0.0663,0.0619,0.0655,0.0625,0.0583,0.0582,0.0575,0.0569,0.0553,0.0547,0.0622,0.0622,0.0622,0,0.0253,0.0275,0.0325,0.0334,0.0352,0.0409,0.0409,0.0433,0.048,0.0491,0.0512,0.0558,0.059,0.06,0.0588,0.0602,0.0603,0.0619,0.0572,0.0567,0.0562,0.0547,0.0541,0.0618,0.0619,0.0619,0.0619,0,0.0217,0.0231,0.0226,0.0269,0.0286,0.0291,0.0341,0.0353,0.0384,0.0417,0.043,0.047,0.0501,0.0506,0.0538,0.0521,0.0531,0.0561,0.0598,0.0549,0.0536,0.0531,0.0613,0.0614,0.0615,0.0616,0,0,0.0121,0.019,0.0188,0.0208,0.0257,0.027,0.0277,0.0307,0.0315,0.0346,0.0353,0.0381,0.0409,0.043,0.0465,0.0463,0.0425,0.0494,0.0496,0.0479,0.0408,0.0385,0.0377,0.0449,0.0448,0.0447,0.0404,0,0.0076,0.0092,0.0136,0.0138,0.0152,0.0205,0.0212,0.0243,0.0274,0.029,0.0325,0.0343,0.0379,0.0391,0.0392,0.0429,0.0411,0.0433,0.0456,0.0457,0.0444,0.0371,0.0347,0.0304,0.0399,0.0398,0.0398,0,0.0027,0.0052,0.0055,0.0103,0.0111,0.0115,0.0146,0.0161,0.0197,0.022,0.0242,0.028,0.0291,0.0324,0.0339,0.0353,0.0365,0.0384,0.0384,0.0388,0.0424,0.0372,0.0292,0.0285,0.039,0.0391,0.0392,0,-0.0044,-0.0009,-0.0002,0.0013,0.0069,0.0071,0.0095,0.0132,0.0147,0.0174,0.0184,0.0212,0.0227,0.0248,0.0293,0.0313,0.0303,0.034,0.0322,0.032,0.0317,0.0317,0.0237,0.0325,0.0325,0.0325,0.0325,0,-0.0099,-0.0099,-0.0034,-0.003,-0.0029,0.0022,0.0022,0.0051,0.0083,0.0094,0.0142,0.0151,0.0209,0.0225,0.026,0.0267,0.0274,0.0292,0.0301,0.0288,0.0285,0.0297,0.0301,0.0324,0.0324,0.0324,0.0325,0,-0.0178,-0.0134,-0.0124,-0.0072,-0.0059,-0.006,-0.0015,-0.001,0.0023,0.0036,0.0042,0.0094,0.0115,0.0161,0.0195,0.0218,0.0216,0.0233,0.0203,0.0209,0.0188,0.0189,0.0113,0.0105,0.0197,0.0196,0.0195,0,-0.0215,-0.0215,-0.0163,-0.0153,-0.0132,-0.0116,-0.0101,-0.0051,-0.0037,0.0003,0.0004,0.0028,0.005,0.008,0.0122,0.0147,0.0165,0.0137,0.0169,0.0155,0.0164,0.0163,0.0164,0.0129,0.0128,0.0127,0.0126,0,-0.0287,-0.0266,-0.0246,-0.022,-0.0204,-0.018,-0.0154,-0.0148,-0.0092,-0.0079,-0.0058,-0.0041,-0.0008,0.0016,0.0047,0.0072,0.0108,0.0115,0.0112,0.0098,0.0081,0.0089,0.0183,0.0117,0.0118,0.0119,0.0119,0.0119,-0.0347,-0.0344,-0.0307,-0.0288,-0.0263,-0.024,-0.0232,-0.0199,-0.018,-0.015,-0.0122,-0.0104,-0.0068,-0.0022,0.0,0.0015,0.0033,0.0029,0.0028,0.0026,0.002,0.0078,0.0021,0.0021,0.0022,0.0022,0.0022,0,-0.0416,-0.0391,-0.0373,-0.0338,-0.0323,-0.0291,-0.0261,-0.025,-0.0235,-0.0205,-0.0185,-0.0161,-0.0139,-0.0097,-0.0071,-0.0067,-0.005,-0.0062,-0.0061,-0.0057,0.0002,0.0002,-0.0076,-0.0076,-0.0076,-0.0076,-0.0076,-0.0076,-0.0451,-0.0445,-0.0419,-0.0401,-0.0375,-0.0357,-0.0343,-0.0321,-0.0297,-0.0273,-0.0255,-0.0228,-0.0193,-0.0164,-0.0143,-0.0131,-0.0123,-0.0141,-0.0124,-0.007,-0.006,-0.0052,-0.0052,-0.014,-0.014,-0.0184,-0.0184,-0.0185]},{"header":{"parameterUnit":"m.s-1","parameterCategory":1,"la1":30.2991,"la2":30.254,"lo1":-89.0895,"lo2":-89.0444,"dy":0.0017,"dx":0.0017,"nx":28,"ny":28,"refTime":"2024-08-10T21:00:00:Z","depth":0,"parameterNumber":3,"parameterNumberName":"V-component_of_WINDS"},"data":[0,0,0,0,0,0,0,0,0,0,0,0,0,0,0,0,0,0,0,0,0,0,0,0,0,0,0,0,0,0,0,0,0,0,0,0,0,0,0,0,0,0,0,0,0,0,0,0,0,0,0,0,0,0,0,0,0,0,2.8694,2.8694,0,2.8706,2.8706,2.8706,2.8717,2.8717,2.8717,2.8717,2.8727,2.8727,2.8727,0,0,0,0,0,0,0,0,0,0,0,0,0,2.8679,2.8679,2.8694,2.8694,2.8694,2.8706,2.8706,2.8706,2.8717,2.8717,2.8717,2.8718,2.8727,2.8727,2.8727,0,0,0,0,0,0,0,0,0,0,0,0,0,2.8687,2.8679,2.8694,2.8701,2.8702,2.8705,2.8706,2.8706,2.8717,2.8717,2.8717,2.8718,2.8727,2.8727,2.8727,2.8723,0,0,2.8727,2.8727,0,0,0,0,0,0,0,0,2.8687,2.8688,2.87,2.8701,2.8702,2.871,2.8704,2.8712,2.8717,2.8711,2.8717,2.8718,2.8721,2.8721,2.8723,2.8724,2.8724,2.8727,2.8727,2.8728,2.8728,0,0,0,0,0,0,0,2.8686,2.8687,2.8699,2.87,2.8701,2.8703,2.8704,2.8705,2.8714,2.8712,2.8713,2.8714,2.8721,2.8723,2.8723,2.8724,2.8727,2.8728,2.8728,2.8728,2.872,2.872,0,0,0,0,0,0,2.8685,2.8687,2.8698,2.8699,2.8695,2.8703,2.8705,2.8707,2.8715,2.8716,2.8714,2.8714,2.8722,2.8723,2.8724,2.8718,2.8728,2.8728,2.8728,2.872,2.872,2.872,0,0,0,0,0,0,2.8684,2.8686,2.8698,2.8693,2.8695,2.8703,2.8706,2.8707,2.8709,2.8716,2.8717,2.8714,2.8723,2.8723,2.8723,2.8719,2.8728,2.8728,2.8721,2.872,2.872,2.8709,0,0,0,0,0,0,2.8684,2.8685,2.8685,2.8693,2.8695,2.8698,2.8706,2.8707,2.8709,2.871,2.8717,2.8718,2.8723,2.8723,2.8723,2.8719,2.8728,2.8721,2.872,2.872,2.871,2.8708,2.8707,0,0,0,0,0,2.8683,2.8682,2.8685,2.8686,2.8695,2.8698,2.8699,2.8705,2.8709,2.8708,2.8712,2.8718,2.8719,2.8722,2.8723,2.8719,2.8721,2.8721,2.872,2.871,2.8708,2.8707,0,0,0,0,0,0,2.8673,2.8683,2.8687,2.8688,2.8692,2.87,2.8699,2.8704,2.8706,2.8707,2.8714,2.8715,2.8714,2.8716,2.872,2.8715,2.8721,2.872,2.8713,2.8712,2.871,2.8709,2.8728,0,0,0,0,0,2.8671,2.8673,2.8681,2.8681,2.8683,2.8691,2.8692,2.8697,2.8701,2.8703,2.8707,2.871,2.8711,2.8712,2.8713,2.871,2.871,2.8708,2.8706,2.8705,2.8704,2.8701,2.8699,2.8717,2.8717,2.8717,0,0,2.8666,2.8672,2.8673,2.8679,2.8683,2.8684,2.8692,2.8693,2.8694,2.8702,2.8702,2.8705,2.8709,2.8707,2.8706,2.8709,2.8699,2.8704,2.8703,2.8703,2.87,2.8698,2.8696,2.8717,2.8717,2.8717,0,0,2.8658,2.8664,2.8664,2.8667,2.8672,2.8677,2.8677,2.8683,2.8686,2.8686,2.8692,2.8692,2.8694,2.8696,2.8697,2.8688,2.8692,2.8688,2.8681,2.8677,2.8676,2.8674,2.8669,2.8668,2.8687,2.8687,2.8687,0,2.8652,2.8655,2.8663,2.8663,2.8665,2.8673,2.8672,2.8675,2.868,2.868,2.8684,2.8686,2.8689,2.8686,2.8684,2.8685,2.8683,2.8687,2.8675,2.8674,2.8673,2.8668,2.8667,2.8687,2.8687,2.8687,2.8687,0,2.8646,2.8648,2.8647,2.8652,2.8654,2.8653,2.8659,2.866,2.8664,2.8667,2.8666,2.867,2.8671,2.8671,2.8675,2.8668,2.867,2.8674,2.868,2.8671,2.8666,2.8665,2.8686,2.8686,2.8686,2.8686,0,0,2.8633,2.8641,2.8641,2.8642,2.8648,2.8649,2.8648,2.865,2.8649,2.8652,2.8651,2.8651,2.8655,2.8656,2.866,2.8657,2.8647,2.8662,2.8662,2.8658,2.8638,2.8634,2.8632,2.865,2.865,2.865,2.8637,0,2.8626,2.8626,2.8632,2.8629,2.863,2.8637,2.8635,2.8638,2.8641,2.8641,2.8643,2.8643,2.8649,2.8649,2.8647,2.8649,2.8643,2.865,2.8647,2.8647,2.8645,2.863,2.8626,2.8614,2.8636,2.8635,2.8635,0,2.8618,2.862,2.8618,2.8622,2.8622,2.8621,2.8622,2.8623,2.8625,2.8627,2.8627,2.8632,2.8629,2.8635,2.863,2.8635,2.8634,2.8635,2.8634,2.8634,2.864,2.8628,2.861,2.8608,2.8633,2.8633,2.8633,0,2.8607,2.8609,2.8608,2.8609,2.8614,2.8613,2.8615,2.8617,2.8617,2.8618,2.8617,2.8618,2.8617,2.8616,2.862,2.8624,2.8614,2.8621,2.8614,2.8614,2.8612,2.8612,2.8593,2.8612,2.8612,2.8613,2.8613,0,2.8598,2.8596,2.8603,2.8602,2.8599,2.8605,2.8602,2.8604,2.8606,2.8604,2.8609,2.8607,2.8613,2.861,2.8613,2.8608,2.8608,2.8608,2.8609,2.8607,2.8607,2.8606,2.8607,2.8612,2.8612,2.8612,2.8612,0,2.8586,2.8591,2.8589,2.8593,2.8594,2.8592,2.8595,2.8593,2.8596,2.8593,2.8593,2.8597,2.8595,2.8598,2.8596,2.8597,2.859,2.8592,2.8589,2.859,2.8582,2.8582,2.8562,2.8558,2.8581,2.8581,2.8581,0,2.8579,2.8578,2.8582,2.8581,2.8583,2.8582,2.8582,2.8587,2.8586,2.8587,2.8585,2.8583,2.8582,2.8577,2.8579,2.8577,2.8578,2.8571,2.8578,2.8575,2.8576,2.8576,2.8575,2.8569,2.8569,2.8569,2.8569,0,2.8567,2.8569,2.8569,2.8569,2.8569,2.8569,2.857,2.8569,2.8574,2.8572,2.857,2.8569,2.8566,2.8564,2.8562,2.8562,2.8565,2.8566,2.8564,2.8562,2.856,2.856,2.8584,2.8567,2.8567,2.8567,2.8567,2.8567,2.8557,2.8555,2.8557,2.8556,2.8557,2.8557,2.8555,2.8557,2.8555,2.8554,2.8557,2.8553,2.8553,2.855,2.855,2.8546,2.8549,2.8547,2.8546,2.8545,2.8543,2.8561,2.8546,2.8546,2.8546,2.8546,2.8546,0,2.8544,2.8545,2.8544,2.8544,2.8543,2.8547,2.8547,2.8545,2.8543,2.8542,2.8541,2.8537,2.8533,2.8534,2.8531,2.8527,2.8528,2.8526,2.8526,2.8525,2.8541,2.8543,2.8525,2.8525,2.8525,2.8525,2.8525,2.8525,2.8537,2.8533,2.8535,2.8531,2.8532,2.8529,2.8529,2.8528,2.8527,2.8523,2.852,2.8521,2.852,2.8516,2.8513,2.8513,2.8511,2.8507,2.8508,2.8523,2.8525,2.8527,2.8528,2.8507,2.8507,2.8492,2.8492,2.8492]}]]